BAW30DG EGLL-LFPG

Flight info

Callsign BAW30DG
Flight time 0h 41m
Altitude 25000
Route MODMI1J MODMI M185 MID UL612 BOGNA DCT HARDY UM605 BIBAX BIBAX9W
Aircraft A319/M-SDE3FGIJ1KRWXY/LB1

Departure

Time 2026-05-05 06:38
Airport London Heathrow Airport (EGLL)

Arrival

Time 2026-05-05 07:19
Airport Charles de Gaulle International Airport (LFPG)
Time Latitude Longitude Altitude Speed Heading
2026-05-05 06:04 51.46826 -0.48680 86 ft 0 kts 180°
2026-05-05 06:29 51.46828 -0.48680 86 ft 2 kts 180°
2026-05-05 06:29 51.46853 -0.48680 86 ft 2 kts 180°
2026-05-05 06:29 51.46871 -0.48683 86 ft 4 kts 129°
2026-05-05 06:30 51.46877 -0.48716 87 ft 4 kts 89°
2026-05-05 06:30 51.46876 -0.48734 86 ft 0 kts 89°
2026-05-05 06:34 51.46877 -0.48727 86 ft 2 kts 89°
2026-05-05 06:34 51.46877 -0.48681 86 ft 4 kts 89°
2026-05-05 06:34 51.46877 -0.48604 86 ft 9 kts 89°
2026-05-05 06:35 51.46877 -0.48495 86 ft 5 kts 101°
2026-05-05 06:35 51.46834 -0.48469 86 ft 9 kts 178°
2026-05-05 06:35 51.46812 -0.48468 86 ft 4 kts 178°
2026-05-05 06:35 51.46760 -0.48475 86 ft 10 kts 205°
2026-05-05 06:36 51.46742 -0.48595 86 ft 14 kts 271°
2026-05-05 06:36 51.46717 -0.48741 86 ft 14 kts 206°
2026-05-05 06:36 51.46605 -0.48762 90 ft 15 kts 199°
2026-05-05 06:36 51.46501 -0.48762 86 ft 18 kts 142°
2026-05-05 06:37 51.46479 -0.48620 86 ft 12 kts 89°
2026-05-05 06:37 51.46479 -0.48289 88 ft 61 kts 90°
2026-05-05 06:37 51.46483 -0.47243 87 ft 124 kts 90°
2026-05-05 06:37 51.46500 -0.45589 231 ft 160 kts 86°
2026-05-05 06:38 51.46530 -0.43819 875 ft 161 kts 85°
2026-05-05 06:38 51.46550 -0.42002 1526 ft 168 kts 88°
2026-05-05 06:38 51.46135 -0.40116 1899 ft 197 kts 119°
2026-05-05 06:38 51.45263 -0.38255 2274 ft 221 kts 126°
2026-05-05 06:39 51.43885 -0.36759 2536 ft 263 kts 158°
2026-05-05 06:39 51.42098 -0.35897 3436 ft 271 kts 163°
2026-05-05 06:39 51.40215 -0.35630 4465 ft 277 kts 189°
2026-05-05 06:39 51.38421 -0.36641 5433 ft 280 kts 208°
2026-05-05 06:40 51.36692 -0.38074 6091 ft 281 kts 208°
2026-05-05 06:40 51.34952 -0.39476 7126 ft 281 kts 208°
2026-05-05 06:40 51.33190 -0.40871 8105 ft 284 kts 207°
2026-05-05 06:40 51.31409 -0.42267 9066 ft 287 kts 207°
2026-05-05 06:41 51.29601 -0.43675 10012 ft 291 kts 207°
2026-05-05 06:41 51.27731 -0.45131 10513 ft 310 kts 206°
2026-05-05 06:41 51.25726 -0.46709 10850 ft 331 kts 207°
2026-05-05 06:41 51.23631 -0.48376 11513 ft 340 kts 207°
2026-05-05 06:42 51.21504 -0.50064 12280 ft 344 kts 206°
2026-05-05 06:42 51.20044 -0.51208 12808 ft 347 kts 206°
2026-05-05 06:42 51.17858 -0.52902 13597 ft 351 kts 206°
2026-05-05 06:42 51.15650 -0.54601 14299 ft 355 kts 205°
2026-05-05 06:43 51.13417 -0.56318 15004 ft 357 kts 205°
2026-05-05 06:43 51.11200 -0.58025 15709 ft 360 kts 205°
2026-05-05 06:43 51.08859 -0.59462 16397 ft 362 kts 194°
2026-05-05 06:43 51.06359 -0.59990 17091 ft 365 kts 179°
2026-05-05 06:44 51.03842 -0.59544 17844 ft 366 kts 166°
2026-05-05 06:44 51.01444 -0.58151 18536 ft 368 kts 152°
2026-05-05 06:44 50.99267 -0.55980 19140 ft 372 kts 146°
2026-05-05 06:44 50.97124 -0.53677 19793 ft 374 kts 146°
2026-05-05 06:45 50.94956 -0.51352 20391 ft 377 kts 146°
2026-05-05 06:45 50.92778 -0.49025 21015 ft 379 kts 147°
2026-05-05 06:45 50.90608 -0.46714 21578 ft 383 kts 147°
2026-05-05 06:45 50.88384 -0.44351 22149 ft 387 kts 147°
2026-05-05 06:46 50.86141 -0.41975 22744 ft 389 kts 147°
2026-05-05 06:46 50.83879 -0.39586 23319 ft 392 kts 147°
2026-05-05 06:46 50.81599 -0.37181 23821 ft 395 kts 147°
2026-05-05 06:46 50.79311 -0.34770 24299 ft 397 kts 147°
2026-05-05 06:47 50.77006 -0.32342 24766 ft 399 kts 147°
2026-05-05 06:47 50.74698 -0.29908 24931 ft 399 kts 147°
2026-05-05 06:47 50.72454 -0.27434 24975 ft 390 kts 142°
2026-05-05 06:47 50.70513 -0.24469 24970 ft 389 kts 132°
2026-05-05 06:48 50.68953 -0.20983 24967 ft 390 kts 121°
2026-05-05 06:48 50.67739 -0.17148 24970 ft 391 kts 117°
2026-05-05 06:48 50.66559 -0.13290 24970 ft 391 kts 118°
2026-05-05 06:48 50.65373 -0.09435 24976 ft 391 kts 118°
2026-05-05 06:49 50.64184 -0.05583 24968 ft 390 kts 118°
2026-05-05 06:49 50.62999 -0.01751 24968 ft 389 kts 118°
2026-05-05 06:49 50.61812 0.02077 24960 ft 389 kts 118°
2026-05-05 06:49 50.60625 0.05904 24963 ft 389 kts 118°
2026-05-05 06:50 50.59436 0.09729 24954 ft 389 kts 118°
2026-05-05 06:50 50.58248 0.13545 24960 ft 389 kts 118°
2026-05-05 06:50 50.57058 0.17365 24966 ft 389 kts 118°
2026-05-05 06:50 50.55863 0.21186 24963 ft 388 kts 118°
2026-05-05 06:51 50.54673 0.24998 24964 ft 388 kts 118°
2026-05-05 06:51 50.53484 0.28808 24957 ft 388 kts 118°
2026-05-05 06:51 50.52311 0.32573 24956 ft 388 kts 118°
2026-05-05 06:51 50.51105 0.36430 24964 ft 388 kts 118°
2026-05-05 06:52 50.49921 0.40194 24958 ft 388 kts 118°
2026-05-05 06:52 50.48722 0.43991 24959 ft 388 kts 118°
2026-05-05 06:52 50.47363 0.47632 24956 ft 386 kts 127°
2026-05-05 06:52 50.45629 0.50830 24967 ft 383 kts 137°
2026-05-05 06:53 50.43605 0.53537 24968 ft 382 kts 142°
2026-05-05 06:53 50.41533 0.56146 24968 ft 382 kts 142°
2026-05-05 06:53 50.39462 0.58750 24967 ft 381 kts 142°
2026-05-05 06:53 50.37393 0.61346 24965 ft 381 kts 142°
2026-05-05 06:54 50.35323 0.63944 24960 ft 381 kts 142°
2026-05-05 06:54 50.33258 0.66544 24959 ft 381 kts 142°
2026-05-05 06:54 50.31195 0.69138 24954 ft 380 kts 142°
2026-05-05 06:54 50.29134 0.71722 24953 ft 380 kts 142°
2026-05-05 06:55 50.27072 0.74303 24957 ft 379 kts 142°
2026-05-05 06:55 50.25012 0.76877 24955 ft 379 kts 142°
2026-05-05 06:55 50.22947 0.79450 24877 ft 381 kts 142°
2026-05-05 06:55 50.20873 0.82032 24629 ft 381 kts 142°
2026-05-05 06:56 50.18808 0.84603 24394 ft 378 kts 142°
2026-05-05 06:56 50.16759 0.87150 24156 ft 376 kts 142°
2026-05-05 06:56 50.14719 0.89683 23913 ft 374 kts 142°
2026-05-05 06:56 50.12677 0.92215 23670 ft 376 kts 142°
2026-05-05 06:57 50.10624 0.94755 23417 ft 377 kts 142°
2026-05-05 06:57 50.08605 0.97254 23148 ft 374 kts 142°
2026-05-05 06:57 50.06570 0.99755 22864 ft 371 kts 144°
2026-05-05 06:57 50.04359 1.01856 22594 ft 374 kts 154°
2026-05-05 06:58 50.01993 1.03624 22327 ft 369 kts 155°
2026-05-05 06:58 49.99722 1.05331 22063 ft 367 kts 154°
2026-05-05 06:58 49.97426 1.07066 21797 ft 366 kts 154°
2026-05-05 06:58 49.95127 1.08800 21530 ft 369 kts 154°
2026-05-05 06:59 49.92814 1.10542 21272 ft 368 kts 154°
2026-05-05 06:59 49.90518 1.12268 21009 ft 365 kts 154°
2026-05-05 06:59 49.88242 1.13977 20757 ft 363 kts 154°
2026-05-05 06:59 49.85971 1.15678 20517 ft 362 kts 154°
2026-05-05 07:00 49.83705 1.17368 20163 ft 361 kts 153°
2026-05-05 07:00 49.81429 1.19063 19779 ft 364 kts 154°
2026-05-05 07:00 49.79155 1.20761 19392 ft 362 kts 154°
2026-05-05 07:00 49.76890 1.22456 18999 ft 362 kts 154°
2026-05-05 07:01 49.74626 1.24144 18614 ft 359 kts 154°
2026-05-05 07:01 49.72407 1.25797 18242 ft 357 kts 153°
2026-05-05 07:01 49.70175 1.27457 17825 ft 355 kts 153°
2026-05-05 07:01 49.67945 1.29114 17441 ft 355 kts 153°
2026-05-05 07:02 49.65720 1.30764 17067 ft 353 kts 153°
2026-05-05 07:02 49.63512 1.32398 16690 ft 352 kts 153°
2026-05-05 07:02 49.61309 1.34029 16319 ft 350 kts 153°
2026-05-05 07:02 49.59116 1.35653 15943 ft 349 kts 153°
2026-05-05 07:03 49.56929 1.37268 15568 ft 348 kts 153°
2026-05-05 07:03 49.54748 1.38875 15206 ft 346 kts 153°
2026-05-05 07:03 49.52583 1.40470 14844 ft 345 kts 153°
2026-05-05 07:03 49.50429 1.42056 14485 ft 342 kts 153°
2026-05-05 07:04 49.48295 1.43630 14115 ft 339 kts 152°
2026-05-05 07:04 49.46177 1.45191 13761 ft 336 kts 152°
2026-05-05 07:04 49.44074 1.46741 13375 ft 334 kts 153°
2026-05-05 07:04 49.41981 1.48283 13015 ft 333 kts 152°
2026-05-05 07:05 49.39895 1.49812 12662 ft 331 kts 152°
2026-05-05 07:05 49.37824 1.51326 12310 ft 329 kts 152°
2026-05-05 07:05 49.35760 1.52839 11959 ft 328 kts 152°
2026-05-05 07:05 49.33762 1.54481 11605 ft 324 kts 143°
2026-05-05 07:06 49.32073 1.56717 11265 ft 319 kts 129°
2026-05-05 07:06 49.30785 1.59456 10925 ft 316 kts 117°
2026-05-05 07:06 49.29953 1.62566 10556 ft 314 kts 104°
2026-05-05 07:06 49.29617 1.65828 10246 ft 306 kts 92°
2026-05-05 07:07 49.29494 1.69017 10118 ft 293 kts 93°
2026-05-05 07:07 49.29244 1.72003 9960 ft 284 kts 104°
2026-05-05 07:07 49.28408 1.74717 9859 ft 282 kts 123°
2026-05-05 07:07 49.27062 1.76899 9635 ft 284 kts 141°
2026-05-05 07:08 49.25331 1.78349 9369 ft 287 kts 154°
2026-05-05 07:08 49.23501 1.79576 9103 ft 287 kts 154°
2026-05-05 07:08 49.21674 1.80794 8839 ft 286 kts 153°
2026-05-05 07:08 49.19856 1.82010 8574 ft 285 kts 153°
2026-05-05 07:09 49.18046 1.83226 8311 ft 283 kts 153°
2026-05-05 07:09 49.16246 1.84439 8070 ft 282 kts 153°
2026-05-05 07:09 49.14568 1.85942 7837 ft 279 kts 143°
2026-05-05 07:09 49.12946 1.87568 7614 ft 278 kts 143°
2026-05-05 07:10 49.11327 1.89178 7393 ft 277 kts 144°
2026-05-05 07:10 49.09705 1.90783 7164 ft 277 kts 144°
2026-05-05 07:10 49.08089 1.92370 6937 ft 276 kts 144°
2026-05-05 07:10 49.06476 1.93951 6724 ft 275 kts 144°
2026-05-05 07:11 49.04875 1.95524 6490 ft 273 kts 144°
2026-05-05 07:11 49.03280 1.97092 6264 ft 272 kts 144°
2026-05-05 07:11 49.01702 1.98682 6032 ft 270 kts 140°
2026-05-05 07:11 49.00484 2.00787 5804 ft 263 kts 116°
2026-05-05 07:12 48.99905 2.03384 5601 ft 258 kts 95°
2026-05-05 07:12 48.99934 2.06089 5391 ft 253 kts 84°
2026-05-05 07:12 49.00063 2.08727 5196 ft 246 kts 84°
2026-05-05 07:12 49.00183 2.11278 5075 ft 237 kts 84°
2026-05-05 07:13 49.00313 2.13717 4886 ft 232 kts 84°
2026-05-05 07:13 49.00450 2.16136 4686 ft 226 kts 83°
2026-05-05 07:13 49.00585 2.18495 4474 ft 220 kts 83°
2026-05-05 07:13 49.00717 2.20788 4287 ft 215 kts 83°
2026-05-05 07:14 49.00844 2.23015 4099 ft 206 kts 84°
2026-05-05 07:14 49.00964 2.25144 3898 ft 198 kts 84°
2026-05-05 07:14 49.01080 2.27222 3622 ft 195 kts 84°
2026-05-05 07:14 49.01194 2.29262 3353 ft 191 kts 84°
2026-05-05 07:15 49.01305 2.31249 3111 ft 186 kts 84°
2026-05-05 07:15 49.01416 2.33189 2881 ft 180 kts 83°
2026-05-05 07:15 49.01520 2.35061 2634 ft 175 kts 83°
2026-05-05 07:15 49.01620 2.36874 2400 ft 169 kts 83°
2026-05-05 07:16 49.01714 2.38627 2171 ft 162 kts 84°
2026-05-05 07:16 49.01803 2.40271 1957 ft 149 kts 83°
2026-05-05 07:16 49.01885 2.41774 1775 ft 137 kts 82°
2026-05-05 07:16 49.01963 2.43196 1607 ft 133 kts 81°
2026-05-05 07:17 49.02039 2.44589 1425 ft 131 kts 81°
2026-05-05 07:17 49.02114 2.45968 1243 ft 130 kts 84°
2026-05-05 07:17 49.02188 2.47340 1059 ft 133 kts 82°
2026-05-05 07:17 49.02264 2.48729 882 ft 133 kts 82°
2026-05-05 07:18 49.02340 2.50124 703 ft 132 kts 83°
2026-05-05 07:18 49.02417 2.51513 546 ft 131 kts 81°
2026-05-05 07:18 49.02490 2.52893 373 ft 129 kts 81°
2026-05-05 07:18 49.02562 2.54109 354 ft 96 kts 86°
2026-05-05 07:19 49.02600 2.54859 353 ft 47 kts 85°
2026-05-05 07:19 49.02599 2.55132 355 ft 18 kts 98°
2026-05-05 07:19 49.02557 2.55331 358 ft 22 kts 114°
2026-05-05 07:19 49.02502 2.55515 359 ft 10 kts 115°
2026-05-05 07:20 49.02449 2.55606 358 ft 13 kts 160°
2026-05-05 07:20 49.02368 2.55618 355 ft 12 kts 174°
2026-05-05 07:20 49.02277 2.55630 354 ft 15 kts 175°
2026-05-05 07:20 49.02173 2.55643 355 ft 12 kts 175°
2026-05-05 07:21 49.02094 2.55652 355 ft 12 kts 175°
2026-05-05 07:21 49.02001 2.55663 355 ft 15 kts 176°
2026-05-05 07:21 49.01905 2.55657 355 ft 13 kts 214°
2026-05-05 07:21 49.01885 2.55520 358 ft 15 kts 265°
2026-05-05 07:22 49.01876 2.55350 355 ft 17 kts 265°
2026-05-05 07:22 49.01866 2.55157 360 ft 17 kts 265°
2026-05-05 07:22 49.01835 2.55003 357 ft 14 kts 214°
2026-05-05 07:22 49.01728 2.55007 355 ft 17 kts 175°
2026-05-05 07:23 49.01606 2.55020 361 ft 19 kts 175°
2026-05-05 07:23 49.01464 2.55039 357 ft 21 kts 173°
2026-05-05 07:23 49.01322 2.55089 355 ft 21 kts 165°
2026-05-05 07:23 49.01185 2.55153 358 ft 20 kts 162°
2026-05-05 07:24 49.01040 2.55210 361 ft 23 kts 163°
2026-05-05 07:24 49.00881 2.55284 355 ft 25 kts 163°
2026-05-05 07:24 49.00705 2.55358 355 ft 28 kts 164°
2026-05-05 07:24 49.00564 2.55421 355 ft 14 kts 163°
2026-05-05 07:25 49.00463 2.55465 361 ft 17 kts 165°
2026-05-05 07:25 49.00383 2.55497 355 ft 18 kts 165°
2026-05-05 07:25 49.00266 2.55550 359 ft 21 kts 164°
2026-05-05 07:25 49.00114 2.55602 361 ft 23 kts 170°
2026-05-05 07:26 48.99948 2.55634 362 ft 26 kts 175°
2026-05-05 07:26 48.99761 2.55644 358 ft 27 kts 180°
2026-05-05 07:26 48.99571 2.55632 352 ft 28 kts 185°
2026-05-05 07:26 48.99393 2.55598 359 ft 23 kts 189°
2026-05-05 07:27 48.99243 2.55549 360 ft 21 kts 194°
2026-05-05 07:27 48.99107 2.55487 356 ft 18 kts 199°